Orbital Elements at Epoch 2459200.5 (2020-Dec-17.0) TDB
Reference: JPL 23 (heliocentric ecliptic J2000)
Element | Value | Uncertainty (1-sigma) | Units |
e | .06558427487944798 | 3.31e-08 | |
a | 2.610009900509945 | 1.2426e-08 | au |
q | 2.43883429375682 | 8.8959e-08 | au |
i | 1.600028949797948 | 4.089e-06 | deg |
node | 132.4179752221781 | 0.00016541 | deg |
peri | 317.36927772631 | 0.00017057 | deg |
M | 34.22829501924756 | 4.0528e-05 | deg |
tp | 2459054.065157374627 (2020-Jul-23.56515737) | 0.00017333 | TDB |
period | 1540.145172743497 4.22 | 1.0998e-05 3.011e-08 | d yr |
n | .2337441991645006 | 1.6692e-09 | deg/d |
Q | 2.78118550726307 | 1.324e-08 | au |
|
| | Orbit Determination Parameters
Additional Information
|